STARLINK-1760 (46341 NORAD) Tracking and Keplerian Element Data

This shows tracking and keplerian element data for the satellite.

Feedback or suggestion? Click here.




ElementValue
Catalog46341
NameSTARLINK-1760
Epoch Orbit181
Epoch Day335.91670139
Epoch Year2020
RAAN358.0638
Inclination53.0008
Eccentricity0.0001291
Argument of Perigee66.8926
Mean Anonmoly355.1956
Mean Motion15.31892049
Decay Rate-0.01072158
L11 46341U 20062S 20335.91670139 -.01072158 00000-0 -37450-1 0 9993
L22 46341 53.0008 358.0638 0001291 66.8926 355.1956 15.31892049 1815

Live tracking and technical data element details for STARLINK-1760 (NORAD 46341). STARLINK-1760 can be tracked NOW for your location showing map with azimuth and elevation plus other details from your city location.

Track the satellite on the map from your city or location and see movement details for azimuth, elevation, latitude, longitude, range, height, and movement on the map or in text.







IsCatalogInMostPopularTable: catalog: 46341, numindb: 23
Update: records affected: 1



GetName: 46341 STARLINK-1760

Hit Count: updated at: Wed, 02 Dec 2020 06:30:31 GMT